Theta_e
296 296 296 296 296 297 296 296 296 296 296 296 297 298 298 298 299 300 301 304 305 307 311 312 313 317 317 318 318 318 317 316 312 313 316 318 317 312 313 312 311 313 312
296 295 294 295 294 293 293 294 294 294 294 294 294 294 295 295 296 296 297 299 301 302 304 306 308 311 312 315 317 316 316 317 314 311 313 315 314 316 314 313 312 311 313
293 292 291 291 291 291 292 293 293 292 292 292 292 291 292 292 293 293 294 296 298 298 300 301 303 306 307 309 311 312 314 314 315 313 312 315 314 312 312 310 311 312 311
291 290 289 289 290 290 292 292 292 291 290 290 290 290 290 290 291 291 292 293 293 293 294 296 297 299 301 304 307 308 311 311 311 311 311 312 312 302 298 302 303 297 305
290 288 288 289 290 290 290 290 290 289 289 289 288 288 288 289 290 289 289 290 290 290 291 292 293 293 291 294 298 300 303 304 304 305 306 307 307 302 293 298 298 303 306
290 288 287 288 288 288 288 287 287 287 286 287 286 286 286 287 290 291 291 289 289 289 289 290 291 288 291 293 295 296 298 300 301 302 303 302 303 305 296 297 299 300 298
291 288 287 287 286 286 285 285 285 285 285 285 285 285 285 286 290 291 290 289 288 288 288 288 289 290 288 292 293 294 294 296 298 300 300 301 302 305 304 301 297 299 300
290 288 286 285 285 284 284 284 284 283 283 284 284 284 284 286 290 290 290 288 287 287 288 288 288 288 289 289 290 290 291 292 295 298 301 302 304 305 305 304 303 298 289
287 286 285 284 284 284 284 284 283 283 283 283 284 284 283 284 289 290 289 286 285 285 286 286 287 287 289 291 289 288 288 289 294 295 296 297 298 299 299 299 296 291 295
285 285 285 284 283 282 283 282 281 281 284 283 284 284 284 284 287 289 289 285 284 284 285 285 285 285 289 290 288 288 288 288 288 289 291 294 295 296 296 297 298 293 293
282 282 281 281 280 281 280 280 281 282 282 282 282 283 283 284 285 288 289 286 284 284 285 285 285 289 290 291 292 289 288 289 289 288 288 290 292 293 294 295 295 296 294
276 276 276 277 277 279 277 279 279 279 279 280 280 281 283 283 284 286 288 289 288 285 284 286 286 289 290 291 290 290 291 290 288 287 287 288 290 291 293 291 288 291 291
271 271 272 273 274 276 275 275 276 277 277 278 279 280 281 283 283 287 289 289 289 287 286 287 289 290 290 290 290 290 287 287 286 285 285 287 290 292 288 282 280 280 280
266 269 271 271 271 272 274 274 274 274 275 277 277 277 279 280 281 282 281 281 283 284 285 285 286 286 287 286 286 286 286 287 286 286 286 288 290 284 285 282 280 280 278
267 268 268 269 268 269 271 271 272 274 275 274 274 275 275 276 278 282 283 282 284 284 285 285 283 283 283 284 285 286 286 286 286 287 287 287 288 286 285 282 282 280 278
264 265 265 266 266 267 267 267 272 274 276 277 278 278 277 280 281 282 282 283 284 285 282 281 281 281 281 282 283 284 285 286 286 287 287 286 286 285 284 281 282 282 279
262 263 263 264 264 264 265 265 264 268 273 274 275 276 277 278 279 280 281 281 282 282 278 278 278 279 279 280 282 283 284 285 287 287 287 286 287 286 283 281 281 280 277
259 261 261 262 262 263 263 264 264 263 263 265 270 273 275 276 276 277 278 278 275 276 276 276 276 278 278 279 281 282 284 285 286 286 286 286 286 285 282 281 280 278 275
259 260 261 262 262 263 263 264 264 264 263 264 265 267 269 272 273 274 275 271 270 270 272 273 275 276 278 280 281 283 284 285 286 286 286 286 286 284 281 281 279 277 275
259 261 262 262 261 261 261 261 261 262 262 262 262 263 264 265 265 266 267 268 269 269 270 271 273 275 277 279 281 282 284 285 286 286 286 286 285 282 281 278 276 274 274
259 259 260 260 260 260 260 260 261 261 261 261 262 263 269 267 266 266 267 267 268 269 270 271 272 273 275 277 279 280 285 285 286 286 286 286 283 280 280 277 275 275 269
259 260 260 260 260 260 260 261 260 260 261 261 262 263 269 266 265 265 266 267 268 269 270 271 272 273 275 276 278 280 282 284 285 286 286 282 280 279 277 275 272 270 269
260 260 259 259 260 260 260 260 261 261 261 262 263 264 265 266 267 267 267 268 269 270 271 272 273 274 276 278 281 282 282 285 286 285 281 279 278 276 274 271 270 269 268
258 258 258 258 259 259 259 259 260 260 261 261 262 262 263 264 264 265 266 267 268 269 270 271 271 272 274 276 278 281 284 286 286 282 281 278 276 274 272 271 270 268 267
254 257 257 258 258 258 259 259 259 259 260 260 261 261 262 262 263 263 264 265 265 266 267 268 269 270 271 274 278 281 283 282 281 281 279 277 274 273 271 270 268 267 265
256 256 257 258 258 258 258 259 259 259 260 260 260 261 261 261 261 262 262 263 263 264 266 267 268 270 271 274 276 277 279 278 278 277 276 274 272 270 269 267 266 265 264
Wind_Speed
7 6 6 6 6 5 5 4 3 2 3 4 4 5 5 6 6 5 6 6 6 8 8 10 12 10 10 10 10 10 11 11 13 18 13 13 14 11 13 12 13 14 13
6 6 6 6 6 6 5 4 2 1 1 2 3 4 5 5 6 6 7 7 8 9 9 10 11 8 12 11 10 14 12 12 12 18 17 12 12 14 12 15 12 13 14
7 7 7 7 6 6 6 5 4 2 1 1 2 3 5 5 6 6 6 7 8 9 9 10 11 11 12 10 11 11 11 10 11 11 18 11 11 8 9 10 13 14 12
7 7 7 8 8 7 6 5 4 3 2 3 3 5 5 6 6 7 7 8 9 9 10 11 11 11 12 12 11 13 11 11 10 11 13 15 12 3 2 5 8 5 12
8 8 8 7 6 5 4 4 2 3 4 5 5 6 6 6 5 7 7 8 10 11 11 11 11 11 13 14 11 13 12 12 11 12 14 15 14 7 5 4 7 9 12
8 9 7 7 6 5 4 4 3 4 5 5 6 6 7 6 11 14 12 10 11 11 13 12 11 9 11 16 17 17 15 13 15 12 14 16 21 13 3 5 8 8 9
8 8 8 7 6 5 4 3 4 6 4 6 6 6 8 8 14 16 16 11 12 12 13 13 12 8 8 11 16 19 17 15 17 12 17 16 21 17 12 10 7 9 13
9 8 6 5 4 3 3 4 5 4 6 7 8 7 9 9 14 15 17 12 13 13 14 14 14 14 10 11 14 15 14 11 10 10 15 17 16 14 12 10 12 10 3
7 5 5 4 1 4 6 7 6 6 6 7 7 10 10 13 12 14 13 10 12 14 13 13 14 14 15 17 13 16 17 12 10 17 20 23 24 24 18 11 11 6 11
5 4 3 3 3 5 6 6 4 4 10 7 12 11 12 15 13 14 13 8 12 11 13 12 15 16 19 17 12 13 19 14 10 11 12 16 16 17 16 13 10 12 10
7 6 6 5 2 4 4 2 5 8 10 11 14 13 13 12 14 18 18 11 10 12 12 11 8 13 17 17 17 14 18 19 21 16 14 13 11 11 10 12 12 12 10
8 7 7 6 5 5 6 8 8 7 11 12 13 16 10 9 12 15 20 22 19 13 14 12 12 18 20 21 22 26 27 23 13 14 14 13 13 11 10 9 9 11 7
9 8 7 7 7 6 8 9 8 7 9 11 11 14 15 9 6 13 16 19 21 17 13 18 27 27 28 24 25 25 22 12 13 15 15 14 13 13 7 3 1 2 3
6 7 7 8 8 7 6 7 7 7 9 10 11 13 15 13 10 6 5 6 11 11 13 15 21 28 31 28 22 17 12 12 12 14 15 14 12 5 7 5 4 4 2
7 7 7 7 8 9 8 8 9 9 11 11 11 13 15 18 11 20 20 15 14 18 20 16 17 15 16 14 14 13 11 10 11 11 15 13 12 9 8 6 4 5 3
7 6 6 7 7 8 10 12 16 23 25 27 28 24 15 31 34 33 33 33 33 31 18 17 17 16 16 16 15 14 13 13 12 12 12 13 12 9 9 7 6 8 6
7 8 6 7 7 8 9 11 15 12 24 26 26 29 31 34 35 32 33 34 35 30 16 16 18 17 16 17 15 15 15 12 12 11 11 11 11 9 9 8 8 7 6
5 8 6 7 7 8 9 10 11 14 16 12 16 22 27 33 35 36 34 32 18 14 14 16 16 16 16 16 15 15 14 12 11 11 12 11 11 10 8 8 9 9 9
6 6 6 7 8 9 10 11 11 13 15 16 14 16 16 27 31 33 32 16 16 15 13 15 16 16 16 16 15 14 15 14 13 11 11 12 11 9 9 9 8 11 12
7 10 9 8 9 9 9 10 11 12 14 14 14 14 13 15 13 13 11 12 13 14 14 15 15 16 17 16 15 16 15 14 12 12 12 12 10 10 11 9 10 12 10
6 7 9 8 8 9 10 11 12 13 14 14 15 15 29 19 16 15 14 13 14 15 15 15 15 16 15 16 17 15 16 13 12 12 11 10 9 10 9 10 11 11 12
6 7 7 8 9 10 10 11 12 13 14 16 16 16 31 15 15 15 15 15 15 16 14 15 16 16 15 15 16 16 17 15 13 12 11 9 9 9 10 12 11 12 13
7 8 8 8 8 11 10 11 12 13 15 15 16 16 15 14 14 14 15 15 15 15 14 15 17 17 16 17 13 15 17 15 12 8 9 9 9 11 12 13 14 14 13
5 6 7 8 8 9 10 11 12 15 15 15 15 15 15 15 15 16 16 15 15 15 15 14 15 20 18 19 16 16 17 10 9 10 14 11 11 14 13 13 14 17 16
4 6 7 8 8 9 11 10 11 12 13 13 13 14 15 15 14 14 14 14 13 14 15 13 12 16 20 25 24 21 12 10 10 12 10 14 16 18 16 14 17 15 18
6 6 6 7 7 8 9 10 11 12 12 12 13 13 14 14 13 13 13 13 12 12 14 10 11 15 13 8 5 3 8 12 13 16 13 14 15 14 14 18 22 16 18
Wind_Direction
149 144 143 139 126 111 108 102 90 70 31 14 354 344 337 330 326 321 305 293 289 290 288 287 283 275 263 257 253 249 251 258 271 283 272 270 266 237 244 241 241 243 241
158 154 151 141 137 136 140 144 130 119 34 359 346 335 325 320 318 314 310 307 303 301 293 288 287 289 284 279 267 263 264 266 271 270 277 275 261 267 240 243 242 241 238
165 159 157 160 160 170 174 173 182 179 212 295 298 304 307 301 299 293 286 290 293 293 293 292 292 291 286 281 277 280 277 271 263 266 280 276 277 273 265 243 250 251 246
163 169 176 179 179 178 175 182 197 213 262 298 286 278 276 282 282 286 286 289 289 286 284 281 282 280 283 287 285 284 284 282 281 276 272 278 273 291 250 255 263 239 258
177 180 196 184 179 171 180 194 212 238 252 259 271 267 261 262 264 269 276 281 284 286 279 274 270 270 277 278 281 279 278 277 276 275 277 282 280 274 221 220 241 261 257
188 197 185 180 178 185 198 215 241 265 265 247 249 253 262 255 251 255 263 272 275 277 283 279 273 265 260 262 266 267 265 279 277 279 279 276 279 278 235 232 256 272 279
196 196 189 182 191 198 209 232 263 275 270 276 264 248 258 250 253 255 257 264 270 272 273 281 284 274 262 271 274 272 266 256 252 267 273 269 282 285 286 275 256 259 263
202 196 169 166 214 262 274 284 287 274 284 283 283 258 262 266 262 256 257 261 267 267 265 267 271 276 265 269 280 282 275 265 259 261 265 278 275 287 279 273 279 269 315
185 160 161 154 233 303 304 303 298 296 294 280 278 278 269 279 263 257 259 262 269 272 266 259 259 265 266 263 270 280 283 276 257 254 261 273 277 280 275 285 279 261 280
69 75 73 45 347 306 294 295 264 249 281 282 282 271 266 275 273 265 257 259 272 274 275 269 245 250 258 255 257 271 286 291 288 284 276 274 275 280 265 249 268 268 256
31 23 15 10 310 275 285 273 281 291 292 293 289 286 277 269 274 264 256 254 258 272 275 281 272 254 255 258 257 272 276 292 294 294 290 283 279 270 268 260 252 246 251
13 4 348 341 332 327 314 304 298 296 295 292 290 289 280 269 248 252 249 245 250 260 272 278 279 275 272 265 278 276 278 284 280 280 281 280 281 272 263 261 248 253 264
357 346 334 330 322 317 309 310 309 300 283 285 284 289 293 290 274 264 260 257 253 257 265 272 277 283 284 283 275 276 276 271 273 273 273 273 271 274 263 167 89 93 48
343 340 335 329 322 319 314 302 292 286 285 288 291 290 293 295 296 290 262 265 273 278 284 282 281 283 283 279 281 272 256 249 252 267 272 276 280 258 239 183 193 187 135
347 339 336 332 324 313 296 293 290 281 279 287 285 287 294 290 295 297 299 294 287 283 286 281 281 281 281 276 273 268 258 249 251 258 268 271 270 261 244 197 206 197 199
338 335 326 315 314 307 304 303 288 288 287 286 286 283 282 282 293 294 293 291 287 286 281 277 275 275 273 277 272 272 265 263 258 257 259 263 265 251 240 207 198 207 198
327 321 316 311 306 306 303 301 303 297 294 292 290 289 287 290 294 295 295 295 292 290 271 271 272 273 274 275 273 270 270 263 257 252 253 252 258 246 223 210 205 193 178
304 300 296 299 298 294 293 292 293 299 304 299 291 292 294 298 299 296 295 296 291 275 268 270 269 269 268 267 269 268 265 260 250 248 244 246 245 233 211 216 202 186 165
310 300 294 286 279 284 290 294 294 297 295 299 301 293 291 291 294 295 295 287 285 281 275 271 270 270 269 267 265 262 259 257 250 243 245 240 232 214 213 203 191 177 154
293 293 302 304 306 306 303 299 298 294 296 294 295 297 299 298 291 286 275 271 270 272 271 268 269 269 271 270 264 257 256 250 246 244 245 237 221 199 203 175 167 155 157
297 299 294 293 294 294 292 291 292 291 289 289 290 290 292 295 295 289 287 280 275 274 273 271 271 268 268 268 271 263 261 240 244 248 243 227 194 193 173 160 156 147 135
281 291 299 298 298 297 297 294 292 290 290 291 292 291 295 288 284 282 280 276 273 271 270 270 270 267 265 263 263 265 261 259 252 252 232 201 181 161 152 149 139 139 140
304 300 300 301 300 301 300 298 299 296 296 295 297 298 298 295 294 288 284 282 280 277 272 268 265 265 262 257 259 267 259 254 249 216 192 172 159 152 148 144 144 141 140
294 296 294 297 300 303 300 302 301 301 302 302 302 301 301 300 299 297 296 293 291 289 287 282 279 278 278 271 266 259 260 247 234 188 170 159 150 145 142 140 141 136 128
276 301 305 303 304 305 307 307 307 307 306 305 307 307 305 302 302 302 300 297 295 290 285 284 281 279 271 268 258 253 241 196 167 154 148 145 146 142 140 133 133 126 124
300 296 298 302 308 309 310 311 312 311 312 314 314 311 310 308 308 305 304 302 298 299 299 296 295 296 309 312 311 183 153 138 135 134 131 135 134 130 129 128 127 123 123